Vorticity
11 12 19 8 3 5 5 8 10 4 7 5 4 9 5 4 5 5 8 8 4 4 4 4 5 5 6 5 3 2 -0 1 1 4 2 3 7 14 5 9 6 5 6 5 5
13 11 14 11 4 4 5 6 12 4 7 5 4 8 5 5 5 5 6 7 8 6 4 4 3 3 2 2 2 5 6 4 3 8 8 10 4 9 3 6 6 6 7 4 5
12 14 9 8 7 7 6 8 10 6 7 5 4 8 5 5 4 5 5 7 8 8 7 6 5 3 3 3 3 8 10 11 7 6 4 6 8 6 9 1 1 7 8 5 10
12 14 11 9 8 7 8 14 9 7 8 5 4 8 6 6 5 6 6 7 8 8 8 7 7 6 5 4 3 10 9 8 8 8 7 9 7 9 6 4 2 3 4 6 6
13 12 10 7 6 9 9 13 8 8 6 5 6 7 6 5 7 7 7 8 8 9 8 8 7 6 7 5 6 10 7 6 6 7 6 6 10 8 10 9 7 3 4 3 3
10 8 6 5 9 11 18 9 7 7 6 5 6 6 5 5 6 6 7 8 7 8 8 7 7 5 4 3 2 -0 0 2 5 6 7 7 9 10 8 7 9 9 7 5 5
8 10 14 14 14 14 9 5 7 6 6 6 6 5 5 4 5 6 4 6 7 6 5 5 5 4 4 5 6 8 6 7 6 7 7 7 6 7 8 4 6 5 9 8 6
10 10 16 12 13 8 5 5 5 6 7 6 4 4 4 3 3 4 5 4 4 5 7 6 7 7 8 7 8 8 7 7 7 6 7 7 3 6 8 8 4 6 6 8 6
15 16 13 8 5 5 5 5 6 6 5 4 3 4 3 4 4 5 5 6 7 7 7 7 7 7 6 6 7 9 8 7 5 8 6 6 6 8 8 8 7 9 8 8 8
13 8 7 6 7 6 8 9 6 8 6 6 7 6 6 7 5 5 6 6 6 7 8 8 8 7 8 8 9 9 8 11 12 10 12 11 12 12 14 12 11 12 11 11 10
5 5 6 7 9 9 9 7 7 7 10 15 11 13 9 10 10 10 11 10 9 8 8 7 6 6 5 4 4 5 6 8 9 10 8 8 8 10 9 14 11 9 11 11 10
8 8 7 7 8 9 11 11 12 13 9 9 8 7 6 6 6 4 4 5 5 6 7 7 7 7 7 8 7 7 9 12 11 15 14 10 9 6 7 2 11 3 8 7 7
6 6 5 5 5 5 5 6 4 5 8 6 7 8 8 8 8 9 9 10 10 10 8 7 8 8 9 8 8 10 8 6 4 -0 -0 3 1 -3 2 1 2 -7 14 0 2
8 9 10 11 10 10 10 9 8 7 10 6 7 3 7 5 8 4 5 8 8 9 10 8 10 8 5 4 4 3 3 3 6 6 4 4 10 -15 14 15 7 5 8 13 11
10 6 5 5 5 6 7 4 9 2 -0 6 4 6 7 5 5 5 6 7 5 5 5 3 5 4 5 7 2 2 2 1 3 2 3 -3 7 26 3 2 8 6 5 1 -3
4 5 9 5 4 8 7 7 7 5 5 6 9 10 6 5 5 5 3 3 5 4 3 5 5 6 4 1 4 4 2 0 -0 2 2 9 8 3 5 3 7 -4 1 5 -4
5 8 10 10 10 8 6 8 7 9 10 9 8 7 7 6 5 4 5 4 4 4 5 6 6 9 8 7 6 3 5 5 7 8 8 8 10 3 -16 2 6 5 3 3 -2
11 11 9 9 9 8 8 9 8 9 7 6 7 6 5 7 6 3 2 4 5 6 2 3 7 4 3 4 2 2 6 5 7 5 8 15 2 9 15 5 2 4 4 5 4
4 5 7 7 8 6 5 5 6 6 6 4 4 0 2 3 4 6 2 6 4 4 4 7 6 3 7 2 1 5 11 6 10 7 4 -0 9 -6 14 1 10 13 9 16 14
8 8 9 8 8 7 6 7 6 4 4 7 7 8 7 6 6 6 7 7 6 6 6 8 12 7 9 5 10 6 10 6 5 4 6 5 -1 9 2 -2 1 4 -2 0 -2
6 8 8 7 7 7 10 11 7 6 6 5 6 4 4 5 5 6 7 8 7 6 8 7 11 11 10 9 9 7 3 6 6 6 5 7 -1 9 3 -1 -4 -4 11 18 17
5 8 9 9 7 7 12 11 10 7 8 8 7 6 4 5 7 5 6 9 10 9 12 15 11 9 7 11 7 5 7 5 4 6 3 2 4 2 3 3 6 4 55 46 52
1 -0 1 4 5 7 6 7 6 8 9 9 6 5 5 6 7 10 11 11 10 11 12 11 11 13 10 12 7 2 4 10 12 9 3 1 1 5 10 5 16 36 48 20 28
5 5 4 3 3 3 3 6 8 6 5 5 6 5 6 6 13 12 14 11 12 14 11 10 10 4 1 3 7 9 9 5 1 7 11 4 13 5 38 41 45 59 20 9 8
6 5 5 4 3 3 2 4 6 8 9 9 9 4 5 9 8 8 8 10 9 7 9 3 6 7 9 9 9 8 7 4 7 -2 12 8 2 41 28 21 32 6 12 18 18
3 3 4 4 7 4 6 4 1 3 7 9 7 6 4 10 11 5 8 7 3 7 4 6 1 3 8 10 8 7 7 -1 15 8 7 24 22 27 21 25 5 8 -4 1 16
6 4 3 4 3 5 4 6 5 2 6 6 6 5 7 6 10 8 6 5 6 3 8 1 2 10 10 5 7 -5 15 14 11 12 18 18 27 34 18 20 8 -1 0 4 0
Height
5767 5775 5782 5791 5801 5810 5817 5824 5832 5840 5848 5854 5859 5865 5869 5873 5877 5880 5884 5887 5889 5892 5894 5896 5898 5900 5901 5903 5904 5905 5906 5905 5904 5904 5904 5903 5904 5903 5904 5903 5903 5902 5901 5902 5903
5773 5781 5788 5796 5805 5813 5820 5826 5834 5842 5849 5855 5860 5865 5870 5874 5877 5881 5884 5886 5889 5891 5893 5895 5896 5898 5899 5901 5902 5903 5903 5902 5902 5902 5902 5901 5901 5900 5901 5900 5899 5897 5897 5900 5899
5779 5785 5792 5800 5808 5816 5822 5828 5836 5844 5851 5856 5861 5866 5870 5874 5878 5880 5883 5886 5888 5890 5891 5893 5894 5896 5897 5898 5899 5899 5899 5899 5899 5898 5897 5897 5897 5897 5897 5898 5894 5895 5892 5893 5892
5783 5790 5796 5804 5811 5818 5824 5831 5838 5846 5852 5857 5862 5866 5871 5874 5879 5880 5882 5884 5886 5888 5889 5890 5892 5892 5893 5894 5894 5895 5895 5895 5896 5895 5893 5893 5894 5894 5894 5893 5888 5889 5889 5890 5890
5789 5795 5801 5808 5815 5821 5827 5833 5841 5847 5853 5858 5863 5867 5871 5874 5878 5879 5881 5883 5884 5886 5887 5888 5889 5890 5890 5891 5891 5892 5892 5891 5891 5890 5890 5890 5890 5889 5890 5885 5883 5886 5887 5887 5888
5796 5801 5806 5812 5818 5825 5831 5837 5844 5850 5855 5860 5864 5868 5871 5875 5877 5878 5880 5881 5883 5884 5884 5885 5886 5886 5887 5887 5887 5888 5887 5886 5887 5886 5885 5885 5886 5884 5884 5881 5880 5880 5882 5882 5883
5804 5808 5813 5818 5824 5830 5836 5842 5848 5853 5857 5861 5865 5868 5871 5874 5875 5877 5879 5880 5881 5882 5882 5883 5883 5883 5884 5884 5884 5882 5883 5883 5882 5882 5879 5878 5882 5880 5878 5878 5877 5877 5877 5878 5877
5811 5814 5819 5824 5829 5834 5840 5845 5850 5855 5859 5863 5866 5868 5871 5873 5875 5876 5877 5879 5880 5881 5882 5882 5882 5882 5881 5880 5880 5880 5879 5879 5877 5877 5873 5873 5879 5877 5875 5873 5873 5873 5872 5871 5871
5817 5821 5824 5829 5834 5838 5843 5848 5852 5856 5860 5863 5866 5868 5870 5872 5874 5876 5878 5879 5879 5880 5880 5879 5879 5878 5877 5875 5876 5873 5874 5874 5873 5871 5867 5866 5873 5873 5869 5867 5867 5867 5864 5862 5861
5826 5829 5832 5836 5840 5845 5849 5853 5857 5860 5863 5865 5868 5871 5872 5874 5874 5876 5876 5877 5877 5877 5877 5877 5876 5874 5873 5872 5872 5870 5867 5869 5868 5866 5861 5862 5863 5865 5863 5857 5857 5857 5855 5852 5849
5834 5836 5840 5843 5847 5851 5854 5857 5861 5863 5864 5867 5868 5870 5871 5873 5874 5875 5875 5875 5874 5874 5873 5873 5872 5870 5869 5867 5866 5864 5863 5862 5862 5861 5854 5855 5853 5857 5855 5853 5849 5847 5846 5843 5840
5841 5843 5845 5848 5850 5853 5855 5858 5860 5863 5864 5865 5867 5868 5870 5871 5872 5872 5872 5872 5871 5871 5871 5870 5868 5866 5865 5863 5861 5859 5858 5856 5855 5854 5850 5847 5849 5846 5847 5846 5842 5839 5835 5833 5831
5847 5849 5851 5852 5854 5856 5858 5860 5862 5863 5865 5866 5867 5868 5869 5870 5870 5870 5870 5869 5869 5868 5867 5865 5864 5862 5860 5858 5855 5854 5852 5851 5848 5848 5846 5840 5841 5839 5835 5833 5830 5829 5828 5825 5821
5852 5853 5854 5855 5858 5858 5860 5861 5862 5864 5866 5868 5867 5868 5868 5868 5868 5867 5867 5867 5866 5865 5863 5862 5860 5858 5856 5853 5851 5850 5847 5844 5841 5838 5836 5834 5829 5831 5823 5817 5817 5817 5813 5810 5808
5855 5856 5857 5858 5859 5860 5862 5862 5863 5864 5866 5867 5867 5867 5866 5867 5867 5866 5865 5864 5863 5861 5861 5857 5855 5853 5851 5848 5845 5843 5839 5836 5832 5829 5825 5827 5821 5817 5811 5803 5801 5800 5796 5791 5787
5858 5858 5858 5860 5860 5861 5861 5862 5863 5865 5865 5866 5865 5865 5865 5864 5863 5862 5861 5861 5859 5857 5855 5853 5848 5847 5844 5841 5838 5834 5830 5827 5823 5819 5816 5810 5808 5808 5797 5791 5787 5781 5779 5776 5772
5860 5860 5860 5861 5862 5862 5862 5863 5865 5864 5865 5865 5864 5863 5863 5862 5861 5859 5858 5857 5854 5852 5847 5845 5842 5840 5837 5834 5829 5826 5820 5815 5814 5806 5805 5797 5796 5795 5785 5780 5773 5768 5761 5756 5751
5862 5862 5862 5862 5862 5862 5863 5864 5863 5863 5862 5862 5862 5861 5860 5858 5857 5855 5853 5850 5850 5844 5839 5838 5830 5832 5828 5826 5820 5813 5811 5806 5797 5796 5793 5790 5786 5786 5770 5756 5752 5746 5737 5732 5726
5863 5863 5863 5862 5862 5862 5863 5862 5861 5860 5860 5859 5859 5858 5857 5854 5852 5849 5848 5844 5841 5837 5833 5828 5825 5822 5815 5813 5807 5800 5796 5792 5783 5778 5772 5771 5763 5763 5752 5738 5725 5720 5712 5702 5692
5864 5863 5862 5862 5861 5861 5861 5860 5859 5858 5857 5856 5855 5854 5852 5850 5847 5843 5840 5837 5832 5827 5824 5818 5814 5813 5808 5803 5796 5793 5787 5781 5771 5760 5753 5756 5749 5745 5728 5717 5710 5701 5689 5678 5667
5864 5863 5862 5861 5860 5860 5859 5858 5856 5855 5854 5853 5851 5849 5847 5844 5841 5836 5832 5828 5823 5817 5813 5809 5802 5799 5792 5787 5783 5778 5771 5763 5753 5743 5730 5724 5735 5724 5703 5688 5681 5672 5660 5643 5630
5863 5863 5861 5860 5860 5858 5856 5855 5854 5852 5851 5849 5847 5844 5842 5838 5834 5829 5823 5818 5812 5807 5802 5797 5792 5787 5782 5777 5772 5765 5755 5745 5735 5733 5720 5701 5710 5705 5692 5676 5656 5641 5628 5615 5607
5862 5861 5860 5858 5857 5855 5853 5852 5850 5848 5846 5844 5841 5838 5835 5830 5825 5821 5815 5810 5803 5797 5792 5786 5781 5775 5766 5761 5756 5750 5740 5729 5718 5706 5708 5682 5681 5678 5665 5652 5640 5625 5606 5596 5592
5860 5859 5857 5855 5853 5851 5849 5847 5845 5843 5841 5838 5835 5831 5827 5822 5816 5810 5805 5801 5794 5789 5784 5777 5773 5767 5761 5753 5744 5737 5726 5719 5702 5694 5681 5668 5649 5647 5634 5621 5615 5608 5597 5587 5581
5856 5854 5852 5851 5849 5847 5845 5842 5840 5838 5835 5831 5827 5823 5819 5814 5808 5802 5796 5790 5784 5779 5774 5769 5762 5754 5746 5739 5730 5723 5714 5704 5693 5679 5660 5654 5634 5625 5615 5604 5601 5593 5584 5577 5571
5851 5850 5848 5846 5844 5841 5838 5835 5832 5829 5826 5822 5818 5814 5809 5803 5797 5792 5787 5780 5776 5770 5763 5756 5750 5743 5734 5726 5715 5707 5697 5686 5675 5663 5650 5633 5621 5611 5601 5595 5592 5583 5575 5567 5561
5845 5844 5842 5839 5836 5833 5830 5827 5824 5821 5818 5813 5809 5804 5800 5795 5788 5782 5777 5771 5764 5758 5751 5744 5736 5727 5722 5711 5699 5692 5678 5666 5657 5644 5626 5613 5605 5596 5589 5585 5583 5571 5565 5560 5553